Cloud_Cover
5 94 99 100 100 100 100 100 100 100 100 100 100 100 100 100 100 100 100 100 100 100 100 100 100 100 100 100 100 100 100 100
0 8 96 100 100 69 82 7 67 98 100 100 100 100 100 100 100 100 100 100 100 100 100 100 100 100 85 97 70 100 100 100
34 26 26 88 100 100 100 37 9 88 100 100 100 100 100 100 100 100 100 100 100 100 100 100 95 100 79 66 83 100 100 100
98 30 24 51 100 100 100 100 65 12 74 98 100 100 100 100 100 100 100 100 100 100 100 100 100 37 70 99 100 100 100 100
17 5 0 5 86 100 100 100 86 100 100 100 100 100 100 100 100 100 100 100 100 100 100 100 100 100 100 100 100 100 100 100
2 5 57 7 28 100 100 100 100 100 100 100 100 100 100 100 100 100 100 100 100 100 100 100 100 100 100 100 100 100 100 100
1 1 5 8 63 100 100 100 5 89 100 100 100 100 100 100 100 100 100 100 100 100 100 100 100 100 100 100 100 100 100 92
5 2 0 2 70 100 100 100 58 4 5 6 63 66 44 99 100 100 100 100 100 100 100 100 100 100 100 100 100 100 100 98
0 4 0 0 4 58 100 100 100 95 9 52 97 98 100 99 100 100 100 100 100 100 100 100 100 100 100 100 100 100 100 100
5 0 3 5 0 0 5 47 89 100 100 100 100 100 100 100 100 100 86 90 99 100 100 100 100 100 100 100 100 100 100 100
0 1 2 2 5 0 3 16 6 14 57 95 100 99 98 100 100 100 100 100 100 96 92 100 100 100 100 100 100 100 100 100
3 0 0 0 5 4 3 4 9 24 59 88 100 100 100 100 100 100 100 100 100 100 98 100 100 100 100 100 100 100 100 100
1 2 0 0 0 0 0 5 89 90 100 100 100 100 100 100 100 100 100 100 100 100 85 100 100 100 100 100 100 100 100 100
0 0 0 0 0 0 5 1 23 100 100 100 100 100 100 100 100 100 100 100 100 100 99 100 100 100 100 100 100 100 100 100
0 0 0 0 0 0 0 6 20 100 100 100 100 100 100 100 100 100 100 100 100 100 100 100 100 100 100 100 100 100 100 100
3 15 5 0 0 0 0 0 1 15 100 100 100 100 100 100 100 100 100 100 100 100 100 100 100 100 100 100 100 100 100 100
5 1 0 4 0 1 33 97 47 76 100 100 100 100 100 100 100 100 100 100 100 100 100 100 100 100 100 100 100 100 100 100
84 5 23 3 0 0 7 92 100 80 94 100 100 100 100 100 100 100 100 100 100 100 100 100 100 100 100 100 88 50 100 100
70 53 17 3 0 0 21 72 100 100 100 100 100 100 100 100 100 100 100 100 100 100 100 100 100 82 23 36 50 100 55 18